Location: Brookview Estates
(36.0476°N, 86.6931°W)
Time: 13:57:05
(UTC+00:00)

ATLAS 3B R/B - Visible Passes

Search period start: 06 August 2020 00:00
Search period end: 16 August 2020 00:00
Orbit: 1021 x 1174 km, 63.8° (Epoch: 05 August)

Date Brightness Start Highest point End Pass type
(mag) Time Alt. Az. Time Alt. Az. Time Alt. Az.
06 Aug 4.6 04:14:19 14° ENE 04:14:19 14° ENE 04:15:21 10° NE visible
06 Aug 3.5 06:01:32 44° NNW 06:01:32 44° NNW 06:06:41 10° NNE visible
06 Aug 5.0 07:50:56 10° NW 07:52:39 11° NNW 07:54:21 10° NNW visible
07 Aug 3.5 05:15:22 42° NNE 05:15:22 42° NNE 05:19:36 10° NNE visible
07 Aug 4.6 07:02:35 15° WNW 07:04:36 17° NW 07:08:47 10° N visible
08 Aug 3.9 04:29:08 29° NE 04:29:08 29° NE 04:32:14 10° NE visible
08 Aug 4.1 06:16:20 26° NW 06:16:48 26° NW 06:22:17 10° N visible
09 Aug 4.4 03:42:49 17° ENE 03:42:49 17° ENE 03:44:30 10° NE visible
09 Aug 3.6 05:30:01 41° NNW 05:30:01 41° NNW 05:35:29 10° NNE visible
10 Aug 3.3 04:43:37 49° N 04:43:37 49° N 04:48:27 10° NNE visible
10 Aug 4.9 06:30:49 11° WNW 06:33:42 15° NW 06:37:19 10° N visible
11 Aug 3.4 03:57:06 40° NE 03:57:06 40° NE 04:01:11 10° NE visible
11 Aug 4.4 05:44:16 21° WNW 05:45:50 23° NW 05:50:58 10° N visible
12 Aug 3.8 03:10:23 27° ENE 03:10:23 27° ENE 03:13:35 10° NE visible
12 Aug 3.8 04:57:33 36° WNW 04:58:11 36° NW 05:04:15 10° NNE visible
12 Aug 5.4 10:37:41 10° N 10:40:34 13° NE 10:43:30 10° ENE visible
13 Aug 4.1 02:23:25 17° ENE 02:23:25 17° ENE 02:25:26 10° ENE visible
13 Aug 2.9 04:10:33 60° WNW 04:10:44 60° NW 04:17:17 10° NNE visible
13 Aug 5.1 05:59:58 10° WNW 06:02:50 13° NW 06:05:44 10° N visible
14 Aug 2.4 03:23:00 76° S 03:23:27 82° ESE 03:30:06 10° NNE visible
14 Aug 4.7 05:10:12 10° W 05:14:53 20° NW 05:19:37 10° N visible
15 Aug 2.7 02:33:41 31° SSE 02:36:21 47° ESE 02:42:37 10° NE visible
15 Aug 4.1 04:21:24 10° WSW 04:27:10 31° NW 04:32:59 10° NNE visible
15 Aug 5.4 10:06:04 10° N 10:09:43 15° NE 10:13:23 10° ENE visible
